Total_Precipitation_Accumulation
1.97 2.05 1.89 1.87 1.65 1.86 2.24 2.49 2.54 2.74 2.87 2.79 2.44 2.22 2.21 2.16 1.94 1.92 2.16 2.39 2.41 2.29 2.34 2.33 2.06 1.93 1.89 1.65 1.42 1.27 1.16 1.06 0.94 0.78 0.72 0.70 0.58 0.39 0.24 0.19 0.20 0.23 0.20
2.13 2.18 2.10 2.00 1.76 1.83 2.17 2.51 2.60 2.87 2.85 2.89 2.42 2.13 2.06 2.08 1.87 1.75 1.82 2.18 2.20 2.08 2.10 2.28 2.34 2.27 2.17 1.94 1.70 1.47 1.31 1.18 1.04 0.84 0.72 0.68 0.61 0.49 0.41 0.31 0.27 0.26 0.22
2.37 2.48 2.38 2.05 1.89 2.01 2.19 2.23 2.37 2.81 2.65 2.64 2.50 2.44 2.37 2.16 1.92 1.78 1.73 1.84 1.79 1.93 2.02 2.08 2.28 2.41 2.47 2.36 2.14 1.88 1.64 1.38 1.13 0.90 0.75 0.65 0.58 0.51 0.47 0.41 0.38 0.35 0.27
2.13 2.26 1.99 1.66 1.80 2.05 2.21 2.16 2.14 2.51 2.58 2.63 2.67 2.57 2.42 2.20 1.89 1.75 1.69 1.61 1.62 1.48 1.70 1.92 2.11 2.27 2.56 2.66 2.69 2.65 2.35 1.83 1.38 1.05 0.84 0.73 0.64 0.53 0.41 0.38 0.38 0.40 0.31
1.40 1.51 1.40 1.34 1.47 1.75 1.81 1.61 1.75 2.02 2.17 2.33 2.23 2.05 1.83 1.63 1.48 1.38 1.34 1.24 1.39 1.45 1.51 1.58 1.86 2.01 2.39 2.89 3.22 3.30 3.07 2.40 1.75 1.38 1.16 1.00 0.92 0.74 0.50 0.39 0.40 0.39 0.34
1.09 1.18 1.17 1.08 1.13 1.21 1.27 1.45 1.67 1.76 1.69 1.79 1.66 1.56 1.46 1.26 1.18 1.13 0.96 0.96 1.07 1.04 1.11 1.34 1.60 1.46 1.86 2.42 2.87 3.14 3.16 2.87 2.25 1.81 1.56 1.42 1.37 1.08 0.70 0.54 0.50 0.41 0.36
1.02 1.09 1.03 1.02 1.01 0.99 1.00 1.13 1.28 1.34 1.18 1.34 1.58 1.48 1.23 0.99 0.93 0.90 0.81 0.83 0.84 0.88 1.05 1.36 1.49 1.45 1.35 1.47 1.75 2.29 2.76 3.00 2.84 2.38 1.95 1.74 1.69 1.42 1.00 0.80 0.66 0.56 0.53
0.92 0.90 0.96 0.86 0.83 0.92 0.90 0.95 1.07 1.09 0.98 1.08 1.28 1.35 1.17 1.11 0.90 0.59 0.64 0.66 0.64 0.80 0.92 1.04 1.26 1.50 1.46 1.59 1.24 1.57 2.33 2.75 3.05 3.03 2.63 2.22 1.94 1.60 1.23 1.06 0.88 0.74 0.68
0.74 0.71 0.71 0.68 0.70 0.70 0.76 0.84 0.91 1.00 0.96 0.88 0.93 1.08 0.99 0.95 0.87 0.66 0.53 0.56 0.67 0.76 0.77 0.94 1.06 1.31 1.50 1.74 1.64 1.42 1.71 2.05 2.70 3.22 3.20 2.60 1.91 1.45 1.24 1.22 1.17 0.95 0.80
0.71 0.67 0.60 0.60 0.61 0.57 0.69 0.63 0.73 0.88 0.93 0.80 0.79 0.79 0.79 0.84 0.85 0.81 0.68 0.57 0.68 0.71 0.77 0.86 1.01 1.26 1.38 1.63 1.68 1.32 1.15 1.38 2.01 2.72 3.08 2.90 2.22 1.60 1.32 1.39 1.59 1.49 1.15
0.81 0.67 0.65 0.65 0.64 0.54 0.58 0.61 0.73 0.80 0.85 0.78 0.74 0.77 0.84 0.84 0.73 0.76 0.78 0.74 0.75 0.63 0.74 0.89 1.00 1.12 1.19 1.41 1.69 1.44 1.27 1.18 1.30 1.65 2.05 2.42 2.49 2.17 1.87 1.84 2.07 2.21 2.02
0.85 0.74 0.72 0.78 0.71 0.66 0.65 0.63 0.68 0.71 0.82 0.88 0.85 0.78 0.81 0.85 0.72 0.70 0.64 0.63 0.72 0.67 0.81 0.99 1.04 1.10 1.13 1.31 1.33 1.26 1.18 1.04 0.94 0.95 1.15 1.43 1.75 1.94 1.93 2.03 2.33 2.59 2.75
0.74 0.76 0.74 0.78 0.75 0.78 0.72 0.73 0.74 0.67 0.74 0.83 0.80 0.78 0.74 0.71 0.76 0.79 0.78 0.70 0.74 0.76 0.92 1.00 1.09 1.16 1.16 1.30 1.29 1.20 1.02 0.90 0.76 0.70 0.77 0.89 1.05 1.32 1.59 1.78 2.05 2.37 2.67
0.73 0.71 0.68 0.68 0.71 0.75 0.75 0.89 0.81 0.79 0.81 0.78 0.74 0.89 0.85 0.72 0.81 0.86 0.94 1.03 0.99 0.99 1.13 1.16 1.24 1.28 1.39 1.43 1.35 1.23 1.00 0.88 0.75 0.67 0.63 0.64 0.70 0.78 0.96 1.17 1.40 1.69 1.97
0.80 0.78 0.75 0.80 0.83 0.85 0.89 0.99 0.93 0.89 0.93 0.83 0.83 0.94 0.94 0.91 0.92 0.88 1.03 1.19 1.29 1.24 1.29 1.31 1.21 1.18 1.21 1.25 1.19 1.03 0.88 0.84 0.75 0.67 0.64 0.60 0.59 0.61 0.66 0.71 0.78 0.85 0.94
0.87 0.89 0.87 0.87 0.93 0.91 0.91 1.01 1.00 1.05 1.09 1.06 1.05 1.07 1.05 1.04 1.12 1.04 1.11 1.22 1.30 1.40 1.41 1.20 1.10 1.07 1.05 0.92 0.91 0.87 0.82 0.90 0.81 0.69 0.62 0.59 0.57 0.57 0.57 0.59 0.62 0.65 0.69
0.97 0.96 0.97 1.02 1.00 1.02 1.07 1.14 1.09 1.15 1.26 1.40 1.39 1.35 1.36 1.39 1.37 1.30 1.33 1.32 1.30 1.42 1.40 1.14 1.19 1.23 1.12 0.96 0.86 0.82 0.78 0.83 0.82 0.82 0.71 0.62 0.54 0.49 0.49 0.51 0.54 0.59 0.61
1.18 1.14 1.08 1.08 1.02 1.04 1.17 1.24 1.27 1.29 1.31 1.34 1.50 1.70 1.69 1.63 1.53 1.39 1.44 1.38 1.35 1.52 1.47 1.34 1.40 1.42 1.36 1.17 1.05 0.93 0.77 0.74 0.79 0.88 0.77 0.69 0.63 0.57 0.52 0.52 0.53 0.53 0.53
1.37 1.37 1.30 1.20 1.13 1.11 1.16 1.22 1.30 1.30 1.33 1.40 1.53 1.64 1.72 1.82 1.68 1.55 1.49 1.44 1.47 1.57 1.64 1.54 1.53 1.64 1.61 1.37 1.19 0.96 0.77 0.80 0.75 0.86 0.83 0.76 0.74 0.70 0.65 0.60 0.56 0.53 0.50
1.44 1.50 1.44 1.38 1.34 1.23 1.14 1.13 1.15 1.20 1.35 1.49 1.53 1.48 1.58 1.83 1.90 1.84 1.67 1.59 1.61 1.69 1.73 1.72 1.70 1.78 1.80 1.70 1.50 1.21 1.04 0.96 0.85 0.82 0.89 0.82 0.77 0.73 0.68 0.61 0.57 0.55 0.55
1.43 1.54 1.61 1.61 1.53 1.34 1.13 1.14 1.23 1.19 1.31 1.38 1.35 1.27 1.26 1.45 1.67 1.78 1.64 1.59 1.62 1.63 1.66 1.73 1.76 1.80 1.82 1.88 1.73 1.45 1.25 1.14 0.98 0.85 0.88 0.83 0.78 0.72 0.71 0.71 0.66 0.60 0.56
1.80 1.88 1.82 1.72 1.61 1.26 1.24 1.18 1.16 1.20 1.27 1.28 1.25 1.22 1.11 1.05 1.10 1.27 1.43 1.56 1.66 1.59 1.55 1.66 1.79 1.82 1.81 1.83 1.83 1.68 1.45 1.26 1.11 0.97 1.02 1.03 0.98 0.92 0.77 0.67 0.66 0.58 0.52
2.14 2.17 2.08 1.90 1.74 1.61 1.47 1.25 1.15 1.11 1.13 1.12 1.15 1.14 0.97 0.88 0.97 0.96 1.11 1.24 1.36 1.43 1.42 1.51 1.62 1.72 1.84 1.97 1.99 1.81 1.62 1.46 1.26 1.11 1.10 1.02 0.95 0.95 0.86 0.75 0.75 0.61 0.52
2.14 2.16 2.10 1.99 1.89 1.76 1.57 1.29 1.21 1.05 1.07 1.09 1.12 1.12 1.08 1.02 0.99 1.02 1.04 1.05 1.06 1.12 1.20 1.23 1.35 1.53 1.73 1.92 2.07 1.97 1.83 1.55 1.32 1.17 1.12 0.98 0.82 0.77 0.73 0.72 0.73 0.64 0.53
1.89 1.81 1.79 1.81 1.80 1.83 1.68 1.36 1.23 1.12 1.21 1.21 1.19 1.19 1.19 1.12 1.19 1.05 0.98 1.00 1.01 1.04 1.08 1.12 1.15 1.30 1.55 1.73 1.81 1.84 1.75 1.56 1.32 1.13 1.05 1.01 0.83 0.74 0.70 0.62 0.60 0.63 0.55
1.75 1.71 1.66 1.68 1.70 1.71 1.64 1.30 1.18 1.12 1.23 1.24 1.27 1.26 1.20 1.08 1.05 0.92 0.86 0.93 0.93 0.94 0.99 1.00 1.01 1.02 1.09 1.37 1.64 1.48 1.41 1.38 1.24 1.03 0.83 0.88 0.87 0.85 0.78 0.59 0.51 0.52 0.49